User: anonymous   Login
Location: Unspecified
(34.5638°N, 0.0000°E)
Time: 14:08:18
(UTC+00:00)
Language:

Meteor 1-24 Rocket - Orbit

View from above orbital plane
View from above orbital plane
View from above satellite
View from above satellite

Ground track
Ground track

The orbit is defined by the following mean orbital elements,

1 08800U          26088.15778310 +.00000000 +00000-0 +13081-3 0 00001
2 08800  81.2525 336.5549 0095256 103.3265 257.8549 14.10654789    08
Epoch (UTC): 29 March 2026 03:47:12
Eccentricity: 0.0095256
inclination: 81.2525°
perigee height: 788 km
apogee height: 926 km
right ascension of ascending node: 336.5549°
argument of perigee: 103.3265°
revolutions per day: 14.10654789
mean anomaly at epoch: 257.8549°

The dashed part of the orbit path shows where the satellite is in the earth's shadow,  

DLR